owner,sensor,date,latitude,longitude,vertical_datum,sea_water_practical_salinity,qcFlag 
ENP,ioos.station.NOAA.NDBC:WWEF1:1,2017-12-01T00:00:00Z,25.2320,-80.9380,1.5,5.72,1111122 
ENP,ioos.station.NOAA.NDBC:WWEF1:1,2017-12-01T01:00:00Z,25.2320,-80.9380,1.5,5.68,1111122 
ENP,ioos.station.NOAA.NDBC:WWEF1:1,2017-12-01T03:00:00Z,25.2320,-80.9380,1.5,5.69,1111122 
ENP,ioos.station.NOAA.NDBC:WWEF1:1,2017-12-01T04:00:00Z,25.2320,-80.9380,1.5,5.61,1111122 
ENP,ioos.station.NOAA.NDBC:WWEF1:1,2017-12-01T06:00:00Z,25.2320,-80.9380,1.5,5.58,1111122 
ENP,ioos.station.NOAA.NDBC:WWEF1:1,2017-12-01T07:00:00Z,25.2320,-80.9380,1.5,5.58,1111122 
ENP,ioos.station.NOAA.NDBC:WWEF1:1,2017-12-01T08:00:00Z,25.2320,-80.9380,1.5,5.59,1111122 
ENP,ioos.station.NOAA.NDBC:WWEF1:1,2017-12-01T09:00:00Z,25.2320,-80.9380,1.5,5.59,1111122 
ENP,ioos.station.NOAA.NDBC:WWEF1:1,2017-12-01T11:00:00Z,25.2320,-80.9380,1.5,5.59,1111122 
ENP,ioos.station.NOAA.NDBC:WWEF1:1,2017-12-01T12:00:00Z,25.2320,-80.9380,1.5,5.6,1111122 
ENP,ioos.station.NOAA.NDBC:WWEF1:1,2017-12-01T13:00:00Z,25.2320,-80.9380,1.5,5.6,1111122 
ENP,ioos.station.NOAA.NDBC:WWEF1:1,2017-12-01T14:00:00Z,25.2320,-80.9380,1.5,5.6,1111122 
ENP,ioos.station.NOAA.NDBC:WWEF1:1,2017-12-01T15:00:00Z,25.2320,-80.9380,1.5,5.66,1111122 
ENP,ioos.station.NOAA.NDBC:WWEF1:1,2017-12-01T16:00:00Z,25.2320,-80.9380,1.5,5.86,1111122 
ENP,ioos.station.NOAA.NDBC:WWEF1:1,2017-12-01T17:00:00Z,25.2320,-80.9380,1.5,5.96,1111122 
ENP,ioos.station.NOAA.NDBC:WWEF1:1,2017-12-01T18:00:00Z,25.2320,-80.9380,1.5,5.98,1111122 
ENP,ioos.station.NOAA.NDBC:WWEF1:1,2017-12-01T19:00:00Z,25.2320,-80.9380,1.5,5.97,1111122 
ENP,ioos.station.NOAA.NDBC:WWEF1:1,2017-12-01T20:00:00Z,25.2320,-80.9380,1.5,5.93,1111122 
ENP,ioos.station.NOAA.NDBC:WWEF1:1,2017-12-01T21:00:00Z,25.2320,-80.9380,1.5,5.88,1111122 
ENP,ioos.station.NOAA.NDBC:WWEF1:1,2017-12-01T22:00:00Z,25.2320,-80.9380,1.5,5.82,1111122 
ENP,ioos.station.NOAA.NDBC:WWEF1:1,2017-12-01T23:00:00Z,25.2320,-80.9380,1.5,5.79,1111122 
ENP,ioos.station.NOAA.NDBC:WWEF1:1,2017-12-02T00:00:00Z,25.2320,-80.9380,1.5,5.77,1111122 
ENP,ioos.station.NOAA.NDBC:WWEF1:1,2017-12-02T01:00:00Z,25.2320,-80.9380,1.5,5.77,1111122 
ENP,ioos.station.NOAA.NDBC:WWEF1:1,2017-12-02T03:00:00Z,25.2320,-80.9380,1.5,5.72,1111122 
ENP,ioos.station.NOAA.NDBC:WWEF1:1,2017-12-02T04:00:00Z,25.2320,-80.9380,1.5,5.57,1111122 
ENP,ioos.station.NOAA.NDBC:WWEF1:1,2017-12-02T06:00:00Z,25.2320,-80.9380,1.5,5.48,1111122 
ENP,ioos.station.NOAA.NDBC:WWEF1:1,2017-12-02T07:00:00Z,25.2320,-80.9380,1.5,5.45,1111122 
ENP,ioos.station.NOAA.NDBC:WWEF1:1,2017-12-02T08:00:00Z,25.2320,-80.9380,1.5,5.6,1111122 
ENP,ioos.station.NOAA.NDBC:WWEF1:1,2017-12-02T09:00:00Z,25.2320,-80.9380,1.5,5.63,1111122 
ENP,ioos.station.NOAA.NDBC:WWEF1:1,2017-12-02T11:00:00Z,25.2320,-80.9380,1.5,5.66,1111122 
ENP,ioos.station.NOAA.NDBC:WWEF1:1,2017-12-02T12:00:00Z,25.2320,-80.9380,1.5,5.66,1111122 
ENP,ioos.station.NOAA.NDBC:WWEF1:1,2017-12-02T13:00:00Z,25.2320,-80.9380,1.5,5.66,1111122 
ENP,ioos.station.NOAA.NDBC:WWEF1:1,2017-12-02T14:00:00Z,25.2320,-80.9380,1.5,5.66,1111122 
ENP,ioos.station.NOAA.NDBC:WWEF1:1,2017-12-02T15:00:00Z,25.2320,-80.9380,1.5,5.66,1111122 
ENP,ioos.station.NOAA.NDBC:WWEF1:1,2017-12-02T16:00:00Z,25.2320,-80.9380,1.5,5.66,1111122 
ENP,ioos.station.NOAA.NDBC:WWEF1:1,2017-12-02T17:00:00Z,25.2320,-80.9380,1.5,5.66,1111122 
ENP,ioos.station.NOAA.NDBC:WWEF1:1,2017-12-02T18:00:00Z,25.2320,-80.9380,1.5,5.66,1111122 
ENP,ioos.station.NOAA.NDBC:WWEF1:1,2017-12-02T19:00:00Z,25.2320,-80.9380,1.5,5.67,1111122 
ENP,ioos.station.NOAA.NDBC:WWEF1:1,2017-12-02T20:00:00Z,25.2320,-80.9380,1.5,5.57,1111122 
ENP,ioos.station.NOAA.NDBC:WWEF1:1,2017-12-02T21:00:00Z,25.2320,-80.9380,1.5,5.47,1111122 
ENP,ioos.station.NOAA.NDBC:WWEF1:1,2017-12-02T22:00:00Z,25.2320,-80.9380,1.5,5.43,1111122 
ENP,ioos.station.NOAA.NDBC:WWEF1:1,2017-12-02T23:00:00Z,25.2320,-80.9380,1.5,5.41,1111122 
ENP,ioos.station.NOAA.NDBC:WWEF1:1,2017-12-03T00:00:00Z,25.2320,-80.9380,1.5,5.42,1111122 
ENP,ioos.station.NOAA.NDBC:WWEF1:1,2017-12-03T01:00:00Z,25.2320,-80.9380,1.5,5.42,1111122 
ENP,ioos.station.NOAA.NDBC:WWEF1:1,2017-12-03T03:00:00Z,25.2320,-80.9380,1.5,5.43,1111122 
ENP,ioos.station.NOAA.NDBC:WWEF1:1,2017-12-03T04:00:00Z,25.2320,-80.9380,1.5,5.4,1111122 
ENP,ioos.station.NOAA.NDBC:WWEF1:1,2017-12-03T06:00:00Z,25.2320,-80.9380,1.5,5.26,1111122 
ENP,ioos.station.NOAA.NDBC:WWEF1:1,2017-12-03T07:00:00Z,25.2320,-80.9380,1.5,5.32,1111122 
ENP,ioos.station.NOAA.NDBC:WWEF1:1,2017-12-03T08:00:00Z,25.2320,-80.9380,1.5,5.52,1111122 
ENP,ioos.station.NOAA.NDBC:WWEF1:1,2017-12-03T09:00:00Z,25.2320,-80.9380,1.5,5.57,1111122 
ENP,ioos.station.NOAA.NDBC:WWEF1:1,2017-12-03T12:00:00Z,25.2320,-80.9380,1.5,5.61,1111122 
ENP,ioos.station.NOAA.NDBC:WWEF1:1,2017-12-03T13:00:00Z,25.2320,-80.9380,1.5,5.61,1111122 
ENP,ioos.station.NOAA.NDBC:WWEF1:1,2017-12-03T14:00:00Z,25.2320,-80.9380,1.5,5.61,1111122 
ENP,ioos.station.NOAA.NDBC:WWEF1:1,2017-12-03T15:00:00Z,25.2320,-80.9380,1.5,5.63,1111122 
ENP,ioos.station.NOAA.NDBC:WWEF1:1,2017-12-03T16:00:00Z,25.2320,-80.9380,1.5,5.8,1111122 
ENP,ioos.station.NOAA.NDBC:WWEF1:1,2017-12-03T17:00:00Z,25.2320,-80.9380,1.5,5.92,1111122 
ENP,ioos.station.NOAA.NDBC:WWEF1:1,2017-12-03T18:00:00Z,25.2320,-80.9380,1.5,5.96,1111122 
ENP,ioos.station.NOAA.NDBC:WWEF1:1,2017-12-03T19:00:00Z,25.2320,-80.9380,1.5,5.73,1111122 
ENP,ioos.station.NOAA.NDBC:WWEF1:1,2017-12-03T20:00:00Z,25.2320,-80.9380,1.5,5.57,1111122 
ENP,ioos.station.NOAA.NDBC:WWEF1:1,2017-12-03T21:00:00Z,25.2320,-80.9380,1.5,5.54,1111122 
ENP,ioos.station.NOAA.NDBC:WWEF1:1,2017-12-03T22:00:00Z,25.2320,-80.9380,1.5,5.52,1111122 
ENP,ioos.station.NOAA.NDBC:WWEF1:1,2017-12-04T01:00:00Z,25.2320,-80.9380,1.5,5.53,1111122 
ENP,ioos.station.NOAA.NDBC:WWEF1:1,2017-12-04T03:00:00Z,25.2320,-80.9380,1.5,5.48,1111122 
ENP,ioos.station.NOAA.NDBC:WWEF1:1,2017-12-04T04:00:00Z,25.2320,-80.9380,1.5,5.47,1111122 
ENP,ioos.station.NOAA.NDBC:WWEF1:1,2017-12-04T06:00:00Z,25.2320,-80.9380,1.5,5.47,1111122 
ENP,ioos.station.NOAA.NDBC:WWEF1:1,2017-12-04T07:00:00Z,25.2320,-80.9380,1.5,5.47,1111122 
ENP,ioos.station.NOAA.NDBC:WWEF1:1,2017-12-04T08:00:00Z,25.2320,-80.9380,1.5,5.46,1111122 
ENP,ioos.station.NOAA.NDBC:WWEF1:1,2017-12-04T09:00:00Z,25.2320,-80.9380,1.5,5.48,1111122 
ENP,ioos.station.NOAA.NDBC:WWEF1:1,2017-12-04T11:00:00Z,25.2320,-80.9380,1.5,5.57,1111122 
ENP,ioos.station.NOAA.NDBC:WWEF1:1,2017-12-04T12:00:00Z,25.2320,-80.9380,1.5,5.58,1111122 
ENP,ioos.station.NOAA.NDBC:WWEF1:1,2017-12-04T13:00:00Z,25.2320,-80.9380,1.5,5.58,1111122 
ENP,ioos.station.NOAA.NDBC:WWEF1:1,2017-12-04T14:00:00Z,25.2320,-80.9380,1.5,5.58,1111122 
ENP,ioos.station.NOAA.NDBC:WWEF1:1,2017-12-04T15:00:00Z,25.2320,-80.9380,1.5,5.6,1111122 
ENP,ioos.station.NOAA.NDBC:WWEF1:1,2017-12-04T16:00:00Z,25.2320,-80.9380,1.5,5.61,1111122 
ENP,ioos.station.NOAA.NDBC:WWEF1:1,2017-12-04T17:00:00Z,25.2320,-80.9380,1.5,5.69,1111122 
ENP,ioos.station.NOAA.NDBC:WWEF1:1,2017-12-04T18:00:00Z,25.2320,-80.9380,1.5,5.69,1111122 
ENP,ioos.station.NOAA.NDBC:WWEF1:1,2017-12-04T19:00:00Z,25.2320,-80.9380,1.5,5.71,1111122 
ENP,ioos.station.NOAA.NDBC:WWEF1:1,2017-12-04T20:00:00Z,25.2320,-80.9380,1.5,5.75,1111122 
ENP,ioos.station.NOAA.NDBC:WWEF1:1,2017-12-04T21:00:00Z,25.2320,-80.9380,1.5,5.63,1111122 
ENP,ioos.station.NOAA.NDBC:WWEF1:1,2017-12-04T22:00:00Z,25.2320,-80.9380,1.5,5.52,1111122 
ENP,ioos.station.NOAA.NDBC:WWEF1:1,2017-12-04T23:00:00Z,25.2320,-80.9380,1.5,5.51,1111122 
ENP,ioos.station.NOAA.NDBC:WWEF1:1,2017-12-05T12:00:00Z,25.2320,-80.9380,1.5,5.45,1111122 
ENP,ioos.station.NOAA.NDBC:WWEF1:1,2017-12-05T14:00:00Z,25.2320,-80.9380,1.5,5.54,1111122 
ENP,ioos.station.NOAA.NDBC:WWEF1:1,2017-12-05T15:00:00Z,25.2320,-80.9380,1.5,5.56,1111122 
ENP,ioos.station.NOAA.NDBC:WWEF1:1,2017-12-05T16:00:00Z,25.2320,-80.9380,1.5,5.57,1111122 
ENP,ioos.station.NOAA.NDBC:WWEF1:1,2017-12-05T17:00:00Z,25.2320,-80.9380,1.5,5.66,1111122 
ENP,ioos.station.NOAA.NDBC:WWEF1:1,2017-12-05T18:00:00Z,25.2320,-80.9380,1.5,5.65,1111122 
ENP,ioos.station.NOAA.NDBC:WWEF1:1,2017-12-05T19:00:00Z,25.2320,-80.9380,1.5,5.56,1111122 
ENP,ioos.station.NOAA.NDBC:WWEF1:1,2017-12-05T20:00:00Z,25.2320,-80.9380,1.5,5.47,1111122 
ENP,ioos.station.NOAA.NDBC:WWEF1:1,2017-12-05T21:00:00Z,25.2320,-80.9380,1.5,5.42,1111122 
ENP,ioos.station.NOAA.NDBC:WWEF1:1,2017-12-05T22:00:00Z,25.2320,-80.9380,1.5,5.47,1111122 
ENP,ioos.station.NOAA.NDBC:WWEF1:1,2017-12-05T23:00:00Z,25.2320,-80.9380,1.5,5.48,1111122 
ENP,ioos.station.NOAA.NDBC:WWEF1:1,2017-12-06T00:00:00Z,25.2320,-80.9380,1.5,5.51,1111122 
ENP,ioos.station.NOAA.NDBC:WWEF1:1,2017-12-06T01:00:00Z,25.2320,-80.9380,1.5,5.52,1111122 
ENP,ioos.station.NOAA.NDBC:WWEF1:1,2017-12-06T03:00:00Z,25.2320,-80.9380,1.5,5.53,1111122 
ENP,ioos.station.NOAA.NDBC:WWEF1:1,2017-12-06T04:00:00Z,25.2320,-80.9380,1.5,5.52,1111122 
ENP,ioos.station.NOAA.NDBC:WWEF1:1,2017-12-06T06:00:00Z,25.2320,-80.9380,1.5,5.52,1111122 
ENP,ioos.station.NOAA.NDBC:WWEF1:1,2017-12-06T07:00:00Z,25.2320,-80.9380,1.5,5.52,1111122 
ENP,ioos.station.NOAA.NDBC:WWEF1:1,2017-12-06T08:00:00Z,25.2320,-80.9380,1.5,5.52,1111122 
ENP,ioos.station.NOAA.NDBC:WWEF1:1,2017-12-06T09:00:00Z,25.2320,-80.9380,1.5,5.54,1111122 
ENP,ioos.station.NOAA.NDBC:WWEF1:1,2017-12-06T12:00:00Z,25.2320,-80.9380,1.5,5.54,1111122 
ENP,ioos.station.NOAA.NDBC:WWEF1:1,2017-12-06T13:00:00Z,25.2320,-80.9380,1.5,5.54,1111122 
ENP,ioos.station.NOAA.NDBC:WWEF1:1,2017-12-06T14:00:00Z,25.2320,-80.9380,1.5,5.54,1111122 
ENP,ioos.station.NOAA.NDBC:WWEF1:1,2017-12-06T15:00:00Z,25.2320,-80.9380,1.5,5.54,1111122 
ENP,ioos.station.NOAA.NDBC:WWEF1:1,2017-12-06T16:00:00Z,25.2320,-80.9380,1.5,5.57,1111122 
ENP,ioos.station.NOAA.NDBC:WWEF1:1,2017-12-06T17:00:00Z,25.2320,-80.9380,1.5,5.58,1111122 
ENP,ioos.station.NOAA.NDBC:WWEF1:1,2017-12-06T18:00:00Z,25.2320,-80.9380,1.5,5.59,1111122 
ENP,ioos.station.NOAA.NDBC:WWEF1:1,2017-12-06T19:00:00Z,25.2320,-80.9380,1.5,5.6,1111122 
ENP,ioos.station.NOAA.NDBC:WWEF1:1,2017-12-06T20:00:00Z,25.2320,-80.9380,1.5,5.59,1111122 
ENP,ioos.station.NOAA.NDBC:WWEF1:1,2017-12-06T21:00:00Z,25.2320,-80.9380,1.5,5.58,1111122 
ENP,ioos.station.NOAA.NDBC:WWEF1:1,2017-12-06T22:00:00Z,25.2320,-80.9380,1.5,5.58,1111122 
ENP,ioos.station.NOAA.NDBC:WWEF1:1,2017-12-06T23:00:00Z,25.2320,-80.9380,1.5,5.58,1111122 
ENP,ioos.station.NOAA.NDBC:WWEF1:1,2017-12-07T00:00:00Z,25.2320,-80.9380,1.5,5.58,1111122 
ENP,ioos.station.NOAA.NDBC:WWEF1:1,2017-12-07T01:00:00Z,25.2320,-80.9380,1.5,5.58,1111122 
ENP,ioos.station.NOAA.NDBC:WWEF1:1,2017-12-07T03:00:00Z,25.2320,-80.9380,1.5,5.57,1111122 
ENP,ioos.station.NOAA.NDBC:WWEF1:1,2017-12-07T04:00:00Z,25.2320,-80.9380,1.5,5.55,1111122 
ENP,ioos.station.NOAA.NDBC:WWEF1:1,2017-12-07T06:00:00Z,25.2320,-80.9380,1.5,5.53,1111122 
ENP,ioos.station.NOAA.NDBC:WWEF1:1,2017-12-07T07:00:00Z,25.2320,-80.9380,1.5,5.52,1111122 
ENP,ioos.station.NOAA.NDBC:WWEF1:1,2017-12-07T08:00:00Z,25.2320,-80.9380,1.5,5.52,1111122 
ENP,ioos.station.NOAA.NDBC:WWEF1:1,2017-12-07T09:00:00Z,25.2320,-80.9380,1.5,5.52,1111122 
ENP,ioos.station.NOAA.NDBC:WWEF1:1,2017-12-07T12:00:00Z,25.2320,-80.9380,1.5,5.51,1111122 
ENP,ioos.station.NOAA.NDBC:WWEF1:1,2017-12-07T13:00:00Z,25.2320,-80.9380,1.5,5.51,1111122 
ENP,ioos.station.NOAA.NDBC:WWEF1:1,2017-12-07T14:00:00Z,25.2320,-80.9380,1.5,5.51,1111122 
ENP,ioos.station.NOAA.NDBC:WWEF1:1,2017-12-07T15:00:00Z,25.2320,-80.9380,1.5,5.51,1111122 
ENP,ioos.station.NOAA.NDBC:WWEF1:1,2017-12-07T16:00:00Z,25.2320,-80.9380,1.5,5.5,1111122 
ENP,ioos.station.NOAA.NDBC:WWEF1:1,2017-12-07T17:00:00Z,25.2320,-80.9380,1.5,5.52,1111122 
ENP,ioos.station.NOAA.NDBC:WWEF1:1,2017-12-07T18:00:00Z,25.2320,-80.9380,1.5,5.5,1111122 
ENP,ioos.station.NOAA.NDBC:WWEF1:1,2017-12-07T19:00:00Z,25.2320,-80.9380,1.5,5.5,1111122 
ENP,ioos.station.NOAA.NDBC:WWEF1:1,2017-12-07T22:00:00Z,25.2320,-80.9380,1.5,5.51,1111122 
ENP,ioos.station.NOAA.NDBC:WWEF1:1,2017-12-07T23:00:00Z,25.2320,-80.9380,1.5,5.51,1111122 
ENP,ioos.station.NOAA.NDBC:WWEF1:1,2017-12-08T00:00:00Z,25.2320,-80.9380,1.5,5.51,1111122 
ENP,ioos.station.NOAA.NDBC:WWEF1:1,2017-12-08T01:00:00Z,25.2320,-80.9380,1.5,5.51,1111122 
ENP,ioos.station.NOAA.NDBC:WWEF1:1,2017-12-08T03:00:00Z,25.2320,-80.9380,1.5,5.52,1111122 
ENP,ioos.station.NOAA.NDBC:WWEF1:1,2017-12-08T04:00:00Z,25.2320,-80.9380,1.5,5.53,1111122 
ENP,ioos.station.NOAA.NDBC:WWEF1:1,2017-12-08T06:00:00Z,25.2320,-80.9380,1.5,5.54,1111122 
ENP,ioos.station.NOAA.NDBC:WWEF1:1,2017-12-08T07:00:00Z,25.2320,-80.9380,1.5,5.55,1111122 
ENP,ioos.station.NOAA.NDBC:WWEF1:1,2017-12-08T08:00:00Z,25.2320,-80.9380,1.5,5.57,1111122 
ENP,ioos.station.NOAA.NDBC:WWEF1:1,2017-12-08T09:00:00Z,25.2320,-80.9380,1.5,5.58,1111122 
ENP,ioos.station.NOAA.NDBC:WWEF1:1,2017-12-08T11:00:00Z,25.2320,-80.9380,1.5,5.6,1111122 
ENP,ioos.station.NOAA.NDBC:WWEF1:1,2017-12-08T12:00:00Z,25.2320,-80.9380,1.5,5.6,1111122 
ENP,ioos.station.NOAA.NDBC:WWEF1:1,2017-12-08T13:00:00Z,25.2320,-80.9380,1.5,5.61,1111122 
ENP,ioos.station.NOAA.NDBC:WWEF1:1,2017-12-08T14:00:00Z,25.2320,-80.9380,1.5,5.61,1111122 
ENP,ioos.station.NOAA.NDBC:WWEF1:1,2017-12-08T16:00:00Z,25.2320,-80.9380,1.5,5.52,1111122 
ENP,ioos.station.NOAA.NDBC:WWEF1:1,2017-12-08T17:00:00Z,25.2320,-80.9380,1.5,5.54,1111122 
ENP,ioos.station.NOAA.NDBC:WWEF1:1,2017-12-08T18:00:00Z,25.2320,-80.9380,1.5,5.57,1111122 
ENP,ioos.station.NOAA.NDBC:WWEF1:1,2017-12-08T19:00:00Z,25.2320,-80.9380,1.5,5.6,1111122 
ENP,ioos.station.NOAA.NDBC:WWEF1:1,2017-12-08T20:00:00Z,25.2320,-80.9380,1.5,5.6,1111122 
ENP,ioos.station.NOAA.NDBC:WWEF1:1,2017-12-08T21:00:00Z,25.2320,-80.9380,1.5,5.61,1111122 
ENP,ioos.station.NOAA.NDBC:WWEF1:1,2017-12-08T22:00:00Z,25.2320,-80.9380,1.5,5.63,1111122 
ENP,ioos.station.NOAA.NDBC:WWEF1:1,2017-12-08T23:00:00Z,25.2320,-80.9380,1.5,5.65,1111122 
ENP,ioos.station.NOAA.NDBC:WWEF1:1,2017-12-09T00:00:00Z,25.2320,-80.9380,1.5,5.65,1111122 
ENP,ioos.station.NOAA.NDBC:WWEF1:1,2017-12-09T01:00:00Z,25.2320,-80.9380,1.5,5.65,1111122 
ENP,ioos.station.NOAA.NDBC:WWEF1:1,2017-12-09T03:00:00Z,25.2320,-80.9380,1.5,5.65,1111122 
ENP,ioos.station.NOAA.NDBC:WWEF1:1,2017-12-09T04:00:00Z,25.2320,-80.9380,1.5,5.65,1111122 
ENP,ioos.station.NOAA.NDBC:WWEF1:1,2017-12-09T06:00:00Z,25.2320,-80.9380,1.5,5.65,1111122 
ENP,ioos.station.NOAA.NDBC:WWEF1:1,2017-12-09T07:00:00Z,25.2320,-80.9380,1.5,5.65,1111122 
ENP,ioos.station.NOAA.NDBC:WWEF1:1,2017-12-09T08:00:00Z,25.2320,-80.9380,1.5,5.65,1111122 
ENP,ioos.station.NOAA.NDBC:WWEF1:1,2017-12-09T09:00:00Z,25.2320,-80.9380,1.5,5.66,1111122 
ENP,ioos.station.NOAA.NDBC:WWEF1:1,2017-12-09T12:00:00Z,25.2320,-80.9380,1.5,5.65,1111122 
ENP,ioos.station.NOAA.NDBC:WWEF1:1,2017-12-09T13:00:00Z,25.2320,-80.9380,1.5,5.66,1111122 
ENP,ioos.station.NOAA.NDBC:WWEF1:1,2017-12-09T14:00:00Z,25.2320,-80.9380,1.5,5.66,1111122 
ENP,ioos.station.NOAA.NDBC:WWEF1:1,2017-12-09T15:00:00Z,25.2320,-80.9380,1.5,5.66,1111122 
ENP,ioos.station.NOAA.NDBC:WWEF1:1,2017-12-09T16:00:00Z,25.2320,-80.9380,1.5,5.65,1111122 
ENP,ioos.station.NOAA.NDBC:WWEF1:1,2017-12-09T17:00:00Z,25.2320,-80.9380,1.5,5.64,1111122 
ENP,ioos.station.NOAA.NDBC:WWEF1:1,2017-12-09T18:00:00Z,25.2320,-80.9380,1.5,5.65,1111122 
ENP,ioos.station.NOAA.NDBC:WWEF1:1,2017-12-09T19:00:00Z,25.2320,-80.9380,1.5,5.66,1111122 
ENP,ioos.station.NOAA.NDBC:WWEF1:1,2017-12-09T20:00:00Z,25.2320,-80.9380,1.5,5.71,1111122 
ENP,ioos.station.NOAA.NDBC:WWEF1:1,2017-12-09T21:00:00Z,25.2320,-80.9380,1.5,5.82,1111122 
ENP,ioos.station.NOAA.NDBC:WWEF1:1,2017-12-09T22:00:00Z,25.2320,-80.9380,1.5,5.92,1111122 
ENP,ioos.station.NOAA.NDBC:WWEF1:1,2017-12-09T23:00:00Z,25.2320,-80.9380,1.5,6.0,1111122 
ENP,ioos.station.NOAA.NDBC:WWEF1:1,2017-12-10T00:00:00Z,25.2320,-80.9380,1.5,6.06,1111122 
ENP,ioos.station.NOAA.NDBC:WWEF1:1,2017-12-10T01:00:00Z,25.2320,-80.9380,1.5,6.12,1111122 
ENP,ioos.station.NOAA.NDBC:WWEF1:1,2017-12-10T03:00:00Z,25.2320,-80.9380,1.5,6.21,1111122 
ENP,ioos.station.NOAA.NDBC:WWEF1:1,2017-12-10T04:00:00Z,25.2320,-80.9380,1.5,6.26,1111122 
ENP,ioos.station.NOAA.NDBC:WWEF1:1,2017-12-10T06:00:00Z,25.2320,-80.9380,1.5,6.32,1111122 
ENP,ioos.station.NOAA.NDBC:WWEF1:1,2017-12-10T07:00:00Z,25.2320,-80.9380,1.5,6.32,1111122 
ENP,ioos.station.NOAA.NDBC:WWEF1:1,2017-12-10T08:00:00Z,25.2320,-80.9380,1.5,6.27,1111122 
ENP,ioos.station.NOAA.NDBC:WWEF1:1,2017-12-10T09:00:00Z,25.2320,-80.9380,1.5,6.23,1111122 
ENP,ioos.station.NOAA.NDBC:WWEF1:1,2017-12-10T11:00:00Z,25.2320,-80.9380,1.5,6.19,1111122 
ENP,ioos.station.NOAA.NDBC:WWEF1:1,2017-12-10T13:00:00Z,25.2320,-80.9380,1.5,6.19,1111122 
ENP,ioos.station.NOAA.NDBC:WWEF1:1,2017-12-10T14:00:00Z,25.2320,-80.9380,1.5,6.2,1111122 
ENP,ioos.station.NOAA.NDBC:WWEF1:1,2017-12-10T15:00:00Z,25.2320,-80.9380,1.5,6.2,1111122 
ENP,ioos.station.NOAA.NDBC:WWEF1:1,2017-12-10T16:00:00Z,25.2320,-80.9380,1.5,6.19,1111122 
ENP,ioos.station.NOAA.NDBC:WWEF1:1,2017-12-10T17:00:00Z,25.2320,-80.9380,1.5,6.09,1111122 
ENP,ioos.station.NOAA.NDBC:WWEF1:1,2017-12-10T18:00:00Z,25.2320,-80.9380,1.5,6.07,1111122 
ENP,ioos.station.NOAA.NDBC:WWEF1:1,2017-12-10T19:00:00Z,25.2320,-80.9380,1.5,6.07,1111122 
ENP,ioos.station.NOAA.NDBC:WWEF1:1,2017-12-10T20:00:00Z,25.2320,-80.9380,1.5,6.07,1111122 
ENP,ioos.station.NOAA.NDBC:WWEF1:1,2017-12-10T21:00:00Z,25.2320,-80.9380,1.5,6.08,1111122 
ENP,ioos.station.NOAA.NDBC:WWEF1:1,2017-12-10T22:00:00Z,25.2320,-80.9380,1.5,6.08,1111122 
ENP,ioos.station.NOAA.NDBC:WWEF1:1,2017-12-10T23:00:00Z,25.2320,-80.9380,1.5,6.11,1111122 
ENP,ioos.station.NOAA.NDBC:WWEF1:1,2017-12-11T00:00:00Z,25.2320,-80.9380,1.5,6.12,1111122 
ENP,ioos.station.NOAA.NDBC:WWEF1:1,2017-12-11T01:00:00Z,25.2320,-80.9380,1.5,6.16,1111122 
ENP,ioos.station.NOAA.NDBC:WWEF1:1,2017-12-11T04:00:00Z,25.2320,-80.9380,1.5,6.16,1111122 
ENP,ioos.station.NOAA.NDBC:WWEF1:1,2017-12-11T06:00:00Z,25.2320,-80.9380,1.5,6.11,1111122 
ENP,ioos.station.NOAA.NDBC:WWEF1:1,2017-12-11T07:00:00Z,25.2320,-80.9380,1.5,6.08,1111122 
ENP,ioos.station.NOAA.NDBC:WWEF1:1,2017-12-11T08:00:00Z,25.2320,-80.9380,1.5,6.08,1111122 
ENP,ioos.station.NOAA.NDBC:WWEF1:1,2017-12-11T09:00:00Z,25.2320,-80.9380,1.5,6.08,1111122 
ENP,ioos.station.NOAA.NDBC:WWEF1:1,2017-12-11T11:00:00Z,25.2320,-80.9380,1.5,6.09,1111122 
ENP,ioos.station.NOAA.NDBC:WWEF1:1,2017-12-11T12:00:00Z,25.2320,-80.9380,1.5,6.12,1111122 
ENP,ioos.station.NOAA.NDBC:WWEF1:1,2017-12-11T13:00:00Z,25.2320,-80.9380,1.5,6.13,1111122 
ENP,ioos.station.NOAA.NDBC:WWEF1:1,2017-12-11T14:00:00Z,25.2320,-80.9380,1.5,6.15,1111122 
ENP,ioos.station.NOAA.NDBC:WWEF1:1,2017-12-11T15:00:00Z,25.2320,-80.9380,1.5,6.15,1111122 
ENP,ioos.station.NOAA.NDBC:WWEF1:1,2017-12-11T16:00:00Z,25.2320,-80.9380,1.5,6.15,1111122 
ENP,ioos.station.NOAA.NDBC:WWEF1:1,2017-12-11T17:00:00Z,25.2320,-80.9380,1.5,6.11,1111122 
ENP,ioos.station.NOAA.NDBC:WWEF1:1,2017-12-11T18:00:00Z,25.2320,-80.9380,1.5,6.04,1111122 
ENP,ioos.station.NOAA.NDBC:WWEF1:1,2017-12-11T19:00:00Z,25.2320,-80.9380,1.5,5.98,1111122 
ENP,ioos.station.NOAA.NDBC:WWEF1:1,2017-12-11T20:00:00Z,25.2320,-80.9380,1.5,5.95,1111122 
ENP,ioos.station.NOAA.NDBC:WWEF1:1,2017-12-11T21:00:00Z,25.2320,-80.9380,1.5,5.93,1111122 
ENP,ioos.station.NOAA.NDBC:WWEF1:1,2017-12-11T22:00:00Z,25.2320,-80.9380,1.5,5.92,1111122 
ENP,ioos.station.NOAA.NDBC:WWEF1:1,2017-12-11T23:00:00Z,25.2320,-80.9380,1.5,5.92,1111122 
ENP,ioos.station.NOAA.NDBC:WWEF1:1,2017-12-12T00:00:00Z,25.2320,-80.9380,1.5,5.93,1111122 
ENP,ioos.station.NOAA.NDBC:WWEF1:1,2017-12-12T01:00:00Z,25.2320,-80.9380,1.5,5.94,1111122 
ENP,ioos.station.NOAA.NDBC:WWEF1:1,2017-12-12T04:00:00Z,25.2320,-80.9380,1.5,5.94,1111122 
ENP,ioos.station.NOAA.NDBC:WWEF1:1,2017-12-12T06:00:00Z,25.2320,-80.9380,1.5,5.94,1111122 
ENP,ioos.station.NOAA.NDBC:WWEF1:1,2017-12-12T07:00:00Z,25.2320,-80.9380,1.5,5.94,1111122 
ENP,ioos.station.NOAA.NDBC:WWEF1:1,2017-12-12T08:00:00Z,25.2320,-80.9380,1.5,5.94,1111122 
ENP,ioos.station.NOAA.NDBC:WWEF1:1,2017-12-12T09:00:00Z,25.2320,-80.9380,1.5,5.94,1111122 
ENP,ioos.station.NOAA.NDBC:WWEF1:1,2017-12-12T12:00:00Z,25.2320,-80.9380,1.5,5.94,1111122 
ENP,ioos.station.NOAA.NDBC:WWEF1:1,2017-12-12T13:00:00Z,25.2320,-80.9380,1.5,5.94,1111122 
ENP,ioos.station.NOAA.NDBC:WWEF1:1,2017-12-12T14:00:00Z,25.2320,-80.9380,1.5,5.94,1111122 
ENP,ioos.station.NOAA.NDBC:WWEF1:1,2017-12-12T15:00:00Z,25.2320,-80.9380,1.5,5.94,1111122 
ENP,ioos.station.NOAA.NDBC:WWEF1:1,2017-12-12T16:00:00Z,25.2320,-80.9380,1.5,5.94,1111122 
ENP,ioos.station.NOAA.NDBC:WWEF1:1,2017-12-12T17:00:00Z,25.2320,-80.9380,1.5,5.94,1111122 
ENP,ioos.station.NOAA.NDBC:WWEF1:1,2017-12-12T18:00:00Z,25.2320,-80.9380,1.5,5.94,1111122 
ENP,ioos.station.NOAA.NDBC:WWEF1:1,2017-12-12T19:00:00Z,25.2320,-80.9380,1.5,5.94,1111122 
ENP,ioos.station.NOAA.NDBC:WWEF1:1,2017-12-12T20:00:00Z,25.2320,-80.9380,1.5,5.95,1111122 
ENP,ioos.station.NOAA.NDBC:WWEF1:1,2017-12-12T21:00:00Z,25.2320,-80.9380,1.5,5.93,1111122 
ENP,ioos.station.NOAA.NDBC:WWEF1:1,2017-12-13T08:00:00Z,25.2320,-80.9380,1.5,5.91,1111122 
ENP,ioos.station.NOAA.NDBC:WWEF1:1,2017-12-13T09:00:00Z,25.2320,-80.9380,1.5,5.9,1111122 
ENP,ioos.station.NOAA.NDBC:WWEF1:1,2017-12-13T11:00:00Z,25.2320,-80.9380,1.5,5.88,1111122 
ENP,ioos.station.NOAA.NDBC:WWEF1:1,2017-12-13T12:00:00Z,25.2320,-80.9380,1.5,5.9,1111122 
ENP,ioos.station.NOAA.NDBC:WWEF1:1,2017-12-13T13:00:00Z,25.2320,-80.9380,1.5,5.9,1111122 
ENP,ioos.station.NOAA.NDBC:WWEF1:1,2017-12-13T16:00:00Z,25.2320,-80.9380,1.5,5.93,1111122 
ENP,ioos.station.NOAA.NDBC:WWEF1:1,2017-12-13T17:00:00Z,25.2320,-80.9380,1.5,5.97,1111122 
ENP,ioos.station.NOAA.NDBC:WWEF1:1,2017-12-13T18:00:00Z,25.2320,-80.9380,1.5,6.0,1111122 
ENP,ioos.station.NOAA.NDBC:WWEF1:1,2017-12-13T19:00:00Z,25.2320,-80.9380,1.5,6.03,1111122 
ENP,ioos.station.NOAA.NDBC:WWEF1:1,2017-12-13T20:00:00Z,25.2320,-80.9380,1.5,6.05,1111122 
ENP,ioos.station.NOAA.NDBC:WWEF1:1,2017-12-13T21:00:00Z,25.2320,-80.9380,1.5,6.07,1111122 
ENP,ioos.station.NOAA.NDBC:WWEF1:1,2017-12-14T09:00:00Z,25.2320,-80.9380,1.5,6.13,1111122 
ENP,ioos.station.NOAA.NDBC:WWEF1:1,2017-12-14T12:00:00Z,25.2320,-80.9380,1.5,6.12,1111122 
ENP,ioos.station.NOAA.NDBC:WWEF1:1,2017-12-14T13:00:00Z,25.2320,-80.9380,1.5,6.12,1111122 
ENP,ioos.station.NOAA.NDBC:WWEF1:1,2017-12-14T14:00:00Z,25.2320,-80.9380,1.5,6.11,1111122 
ENP,ioos.station.NOAA.NDBC:WWEF1:1,2017-12-14T15:00:00Z,25.2320,-80.9380,1.5,6.11,1111122 
ENP,ioos.station.NOAA.NDBC:WWEF1:1,2017-12-14T16:00:00Z,25.2320,-80.9380,1.5,6.1,1111122 
ENP,ioos.station.NOAA.NDBC:WWEF1:1,2017-12-14T17:00:00Z,25.2320,-80.9380,1.5,6.0,1111122 
ENP,ioos.station.NOAA.NDBC:WWEF1:1,2017-12-14T18:00:00Z,25.2320,-80.9380,1.5,5.92,1111122 
ENP,ioos.station.NOAA.NDBC:WWEF1:1,2017-12-14T19:00:00Z,25.2320,-80.9380,1.5,5.9,1111122 
ENP,ioos.station.NOAA.NDBC:WWEF1:1,2017-12-14T21:00:00Z,25.2320,-80.9380,1.5,5.9,1111122 
ENP,ioos.station.NOAA.NDBC:WWEF1:1,2017-12-14T23:00:00Z,25.2320,-80.9380,1.5,5.84,1111122 
ENP,ioos.station.NOAA.NDBC:WWEF1:1,2017-12-15T00:00:00Z,25.2320,-80.9380,1.5,5.83,1111122 
ENP,ioos.station.NOAA.NDBC:WWEF1:1,2017-12-15T01:00:00Z,25.2320,-80.9380,1.5,5.82,1111122 
ENP,ioos.station.NOAA.NDBC:WWEF1:1,2017-12-15T04:00:00Z,25.2320,-80.9380,1.5,5.81,1111122 
ENP,ioos.station.NOAA.NDBC:WWEF1:1,2017-12-15T07:00:00Z,25.2320,-80.9380,1.5,5.8,1111122 
ENP,ioos.station.NOAA.NDBC:WWEF1:1,2017-12-15T08:00:00Z,25.2320,-80.9380,1.5,5.8,1111122 
ENP,ioos.station.NOAA.NDBC:WWEF1:1,2017-12-15T09:00:00Z,25.2320,-80.9380,1.5,5.8,1111122 
ENP,ioos.station.NOAA.NDBC:WWEF1:1,2017-12-15T12:00:00Z,25.2320,-80.9380,1.5,5.79,1111122 
ENP,ioos.station.NOAA.NDBC:WWEF1:1,2017-12-15T13:00:00Z,25.2320,-80.9380,1.5,5.79,1111122 
ENP,ioos.station.NOAA.NDBC:WWEF1:1,2017-12-15T14:00:00Z,25.2320,-80.9380,1.5,5.79,1111122 
ENP,ioos.station.NOAA.NDBC:WWEF1:1,2017-12-15T15:00:00Z,25.2320,-80.9380,1.5,5.78,1111122 
ENP,ioos.station.NOAA.NDBC:WWEF1:1,2017-12-15T16:00:00Z,25.2320,-80.9380,1.5,5.76,1111122 
ENP,ioos.station.NOAA.NDBC:WWEF1:1,2017-12-15T17:00:00Z,25.2320,-80.9380,1.5,5.62,1111122 
ENP,ioos.station.NOAA.NDBC:WWEF1:1,2017-12-15T18:00:00Z,25.2320,-80.9380,1.5,5.57,1111122 
ENP,ioos.station.NOAA.NDBC:WWEF1:1,2017-12-15T19:00:00Z,25.2320,-80.9380,1.5,5.6,1111122 